TimeCDT,TemperatureF,Dew PointF,Humidity,Sea Level PressureIn,VisibilityMPH,Wind Direction,Wind SpeedMPH,Gust SpeedMPH,PrecipitationIn,Events,Conditions,WindDirDegrees,DateUTC
12:15 AM,70.2,61.3,74,30.05,10.0,North,4.6,-,N/A,,Clear,360,2013-07-11 05:15:00
12:35 AM,69.8,61.2,74,30.05,10.0,North,5.8,-,N/A,,Clear,360,2013-07-11 05:35:00
12:55 AM,69.1,61.0,75,30.05,10.0,North,5.8,-,N/A,,Clear,360,2013-07-11 05:55:00
1:15 AM,68.5,60.4,75,30.05,10.0,North,5.8,-,N/A,,Clear,360,2013-07-11 06:15:00
1:35 AM,68.9,60.3,74,30.05,10.0,North,6.9,-,N/A,,Clear,360,2013-07-11 06:35:00
1:55 AM,68.5,60.3,75,30.05,10.0,North,5.8,-,N/A,,Clear,360,2013-07-11 06:55:00
2:15 AM,68.2,60.1,75,30.05,10.0,North,5.8,-,N/A,,Clear,360,2013-07-11 07:15:00
2:35 AM,67.3,60.3,78,30.05,10.0,North,4.6,-,N/A,,Clear,360,2013-07-11 07:35:00
2:55 AM,67.3,60.3,78,30.05,10.0,North,4.6,-,N/A,,Clear,360,2013-07-11 07:55:00
3:15 AM,67.3,60.1,78,30.05,10.0,North,5.8,-,N/A,,Clear,360,2013-07-11 08:15:00
3:35 AM,66.9,59.9,78,30.05,10.0,North,6.9,-,N/A,,Clear,360,2013-07-11 08:35:00
3:55 AM,66.7,59.9,79,30.05,10.0,North,6.9,-,N/A,,Clear,360,2013-07-11 08:55:00
4:15 AM,66.6,59.5,78,30.05,10.0,North,5.8,-,N/A,,Clear,360,2013-07-11 09:15:00
4:35 AM,66.0,59.5,80,30.06,10.0,North,5.8,-,N/A,,Clear,360,2013-07-11 09:35:00
4:55 AM,65.8,59.4,80,30.07,10.0,North,4.6,-,N/A,,Clear,10,2013-07-11 09:55:00
5:15 AM,65.7,59.4,80,30.07,10.0,NNE,3.5,-,N/A,,Clear,20,2013-07-11 10:15:00
5:35 AM,64.8,59.4,83,30.07,10.0,North,4.6,-,N/A,,Clear,10,2013-07-11 10:35:00
5:55 AM,64.2,59.0,83,30.08,10.0,North,3.5,-,N/A,,Clear,360,2013-07-11 10:55:00
6:15 AM,63.5,59.2,86,30.08,10.0,Calm,Calm,-,N/A,,Clear,0,2013-07-11 11:15:00
6:35 AM,64.8,59.9,84,30.09,10.0,Calm,Calm,-,N/A,,Clear,0,2013-07-11 11:35:00
6:55 AM,65.7,60.6,84,30.09,10.0,Calm,Calm,-,N/A,,Clear,0,2013-07-11 11:55:00
7:15 AM,67.1,61.0,81,30.09,10.0,Calm,Calm,-,N/A,,Clear,0,2013-07-11 12:15:00
7:35 AM,68.4,61.7,79,30.09,10.0,NNE,4.6,-,N/A,,Clear,30,2013-07-11 12:35:00
7:55 AM,68.9,62.1,79,30.10,10.0,NNE,3.5,-,N/A,,Clear,30,2013-07-11 12:55:00
8:15 AM,70.0,62.8,78,30.10,10.0,NNE,3.5,-,N/A,,Clear,30,2013-07-11 13:15:00
8:35 AM,71.8,64.2,77,30.11,10.0,NNE,4.6,-,N/A,,Clear,30,2013-07-11 13:35:00
8:55 AM,72.7,64.6,76,30.11,10.0,NNE,4.6,-,N/A,,Clear,30,2013-07-11 13:55:00
9:15 AM,73.8,63.5,70,30.11,10.0,NE,3.5,-,N/A,,Clear,40,2013-07-11 14:15:00
9:35 AM,76.1,62.4,62,30.11,10.0,Calm,Calm,-,N/A,,Clear,0,2013-07-11 14:35:00
9:55 AM,75.7,61.5,61,30.11,10.0,East,3.5,-,N/A,,Clear,90,2013-07-11 14:55:00
10:15 AM,77.5,61.7,58,30.11,10.0,ESE,5.8,-,N/A,,Scattered Clouds,110,2013-07-11 15:15:00
10:35 AM,77.7,61.0,56,30.11,10.0,NE,3.5,-,N/A,,Scattered Clouds,50,2013-07-11 15:35:00
10:55 AM,78.1,59.7,53,30.11,10.0,East,4.6,-,N/A,,Clear,80,2013-07-11 15:55:00
11:15 AM,79.5,59.7,51,30.11,10.0,NE,4.6,-,N/A,,Scattered Clouds,50,2013-07-11 16:15:00
11:35 AM,78.3,59.9,53,30.11,10.0,East,3.5,-,N/A,,Scattered Clouds,100,2013-07-11 16:35:00
11:55 AM,78.6,60.1,53,30.11,10.0,NNE,3.5,-,N/A,,Scattered Clouds,20,2013-07-11 16:55:00
12:15 PM,79.9,60.4,51,30.11,10.0,Calm,Calm,-,N/A,,Scattered Clouds,0,2013-07-11 17:15:00
12:35 PM,80.6,59.4,48,30.11,10.0,NNE,5.8,-,N/A,,Scattered Clouds,20,2013-07-11 17:35:00
12:55 PM,80.6,59.7,49,30.11,10.0,ENE,4.6,-,N/A,,Scattered Clouds,70,2013-07-11 17:55:00
1:15 PM,81.9,61.0,49,30.11,10.0,ENE,8.1,-,N/A,,Scattered Clouds,60,2013-07-11 18:15:00
1:35 PM,81.0,59.5,48,30.11,10.0,NE,5.8,-,N/A,,Scattered Clouds,50,2013-07-11 18:35:00
1:55 PM,81.7,61.5,50,30.11,10.0,East,6.9,-,N/A,,Scattered Clouds,80,2013-07-11 18:55:00
2:15 PM,80.2,59.9,50,30.11,10.0,NNE,4.6,-,N/A,,Scattered Clouds,20,2013-07-11 19:15:00
2:35 PM,81.5,59.7,47,30.11,10.0,Calm,Calm,-,N/A,,Scattered Clouds,0,2013-07-11 19:35:00
2:55 PM,82.9,59.0,44,30.11,10.0,North,4.6,-,N/A,,Scattered Clouds,10,2013-07-11 19:55:00
3:15 PM,82.4,58.1,43,30.10,10.0,Calm,Calm,-,N/A,,Scattered Clouds,0,2013-07-11 20:15:00
3:35 PM,82.4,58.6,44,30.10,10.0,NNE,5.8,-,N/A,,Scattered Clouds,30,2013-07-11 20:35:00
3:55 PM,82.8,58.8,44,30.10,10.0,NNE,4.6,-,N/A,,Scattered Clouds,30,2013-07-11 20:55:00
4:15 PM,82.4,57.7,43,30.09,10.0,ENE,4.6,-,N/A,,Scattered Clouds,60,2013-07-11 21:15:00
4:35 PM,82.2,58.8,45,30.09,10.0,ENE,5.8,-,N/A,,Clear,60,2013-07-11 21:35:00
4:55 PM,82.2,57.9,43,30.08,10.0,NE,5.8,-,N/A,,Clear,40,2013-07-11 21:55:00
5:15 PM,82.2,58.8,45,30.08,10.0,NNE,5.8,-,N/A,,Clear,30,2013-07-11 22:15:00
5:35 PM,82.4,58.5,44,30.08,10.0,East,5.8,-,N/A,,Scattered Clouds,90,2013-07-11 22:35:00
5:55 PM,81.5,59.5,47,30.07,10.0,NE,5.8,-,N/A,,Scattered Clouds,50,2013-07-11 22:55:00
6:15 PM,81.7,61.0,49,30.07,10.0,East,5.8,-,N/A,,Clear,90,2013-07-11 23:15:00
6:35 PM,80.8,60.3,49,30.07,10.0,East,5.8,-,N/A,,Clear,80,2013-07-11 23:35:00
6:55 PM,80.1,59.7,50,30.07,10.0,East,3.5,-,N/A,,Clear,80,2013-07-11 23:55:00
7:15 PM,79.5,60.3,52,30.06,10.0,East,4.6,-,N/A,,Clear,80,2013-07-12 00:15:00
7:35 PM,78.3,61.0,55,30.07,10.0,ENE,3.5,-,N/A,,Clear,70,2013-07-12 00:35:00
7:55 PM,77.0,63.3,63,30.07,10.0,Calm,Calm,-,N/A,,Clear,0,2013-07-12 00:55:00
8:15 PM,74.8,62.8,66,30.07,10.0,Calm,Calm,-,N/A,,Clear,0,2013-07-12 01:15:00
8:35 PM,73.6,62.6,68,30.06,10.0,Calm,Calm,-,N/A,,Clear,0,2013-07-12 01:35:00
8:55 PM,71.8,62.4,72,30.06,10.0,NE,3.5,-,N/A,,Clear,50,2013-07-12 01:55:00
9:15 PM,71.6,62.2,72,30.07,10.0,Calm,Calm,-,N/A,,Clear,0,2013-07-12 02:15:00
9:35 PM,70.0,62.6,77,30.07,10.0,Calm,Calm,-,N/A,,Clear,0,2013-07-12 02:35:00
9:55 PM,68.7,62.1,79,30.08,10.0,Calm,Calm,-,N/A,,Clear,0,2013-07-12 02:55:00
10:15 PM,68.2,62.4,82,30.08,10.0,Calm,Calm,-,N/A,,Clear,0,2013-07-12 03:15:00
10:35 PM,67.5,61.7,82,30.08,10.0,Calm,Calm,-,N/A,,Clear,0,2013-07-12 03:35:00
10:55 PM,66.9,61.7,83,30.08,10.0,Calm,Calm,-,N/A,,Clear,0,2013-07-12 03:55:00
11:15 PM,66.7,61.9,84,30.08,10.0,Calm,Calm,-,N/A,,Clear,0,2013-07-12 04:15:00
11:35 PM,65.5,61.3,86,30.09,10.0,Calm,Calm,-,N/A,,Clear,0,2013-07-12 04:35:00
11:55 PM,65.1,61.2,87,30.09,10.0,Calm,Calm,-,N/A,,Clear,0,2013-07-12 04:55:00